BEIDOU 9 (C09)

Last updated on Jan. 22, 2021, 6:27 a.m. UTC

1 37763U 11038A   21021.59731977  .00000001  00000-0  00000+0 0  9993
2 37763  54.4600 183.3813 0076544 223.9207  20.7723  1.00294967 34865
UTC
Height (km)
Latitude
Longitude
Inclination
Orbital Period
UTC large
Height (km)
Speed (km/s)
/
Latitude / Longitude
Inclination (degrees)
Orbital Period (minutes)
Azimuth
Elevation
Range (km)
Doppler Factor
iOS Compass Heading
iOS Angle

Next 30 passes for location: Hong Kong

Rise time Rise Azimuth (degrees) Set time Set Azimuth (degrees) Duration Max altitude (degrees)

No matching passes for this satellites